Regional Weather Roundup
Issued by NWS Little Rock, AR

Home | Current Version | Previous Version | Graphics & Text | Print | Product List | Glossary On
Versions: 1 2 3 4 5 6 7 8 9 10 11 12 13 14 15 16 17 18 19 20 21 22 23 24 25 26 27 28 29 30 31 32 33 34 35 36 37 38 39 40 41 42 43 44 45 46 47 48 49 50
000
ASUS44 KLZK 182005
RWRLZK

WEATHER ROUNDUP FOR ARKANSAS
NATIONAL WEATHER SERVICE LITTLE ROCK AR
200 PM CST THU DEC 18 2014

NOTE: "FAIR" INDICATES FEW OR NO CLOUDS BELOW 12,000 FEET WITH NO
SIGNIFICANT WEATHER AND/OR OBSTRUCTIONS TO VISIBILITY.

ARZ001-003-010-029-182100-
NORTHWEST ARKANSAS

CITY           SKY/WX    TMP DP  RH WIND       PRES   REMARKS
FAYETTEVILLE   CLOUDY    41  37  86 CALM      30.14F
FORT SMITH     CLOUDY    41  37  86 NE6       30.17F
HARRISON       CLOUDY    38  37  97 SE3       30.14F
BENTONVILLE    CLOUDY    39  36  87 W3        30.14F
ROGERS         CLOUDY    39  37  92 MISG      30.14F
SILOAM SPGS    CLOUDY    39  34  81 W5        30.16S
HIGHFILL       CLOUDY    40  38  93 W3        30.14S
SPRINGDALE     CLOUDY    41  37  87 W3        30.15F
$$

ARZ004-005-016-182100-
NORTH CENTRAL ARKANSAS

CITY           SKY/WX    TMP DP  RH WIND       PRES   REMARKS
BATESVILLE     CLOUDY    39  36  87 E3        30.19S
FLIPPIN        CLOUDY    39  32  75 CALM      30.16F
MTN HOME       CLOUDY    37  35  92 CALM      30.16F
$$

ARZ040-041-182100-
WEST CENTRAL ARKANSAS

CITY           SKY/WX    TMP DP  RH WIND       PRES   REMARKS
MENA           CLOUDY    45  43  93 CALM      30.13F
MOUNT IDA      CLOUDY    44  41  89 CALM      30.12F
$$

ARZ009-017-025-026-028-182100-
NORTHEAST ARKANSAS

CITY           SKY/WX    TMP DP  RH WIND       PRES   REMARKS
CORNING        CLOUDY    39  36  87 NE7       30.21F
JONESBORO      CLOUDY    41  37  86 E7        30.19F
NEWPORT        LGT RAIN  41  37  85 CALM      30.21S VSB 1/2
WALNUT RIDGE   CLOUDY    41  34  75 E5        30.20F
BLYTHEVILLE    CLOUDY    42  36  79 E7        30.20F
NW BLYTHEVILLE CLOUDY    43  36  75 SE5       30.20
$$

ARZ022-023-033-042-044-182100-
CENTRAL ARKANSAS

CITY           SKY/WX    TMP DP  RH WIND       PRES   REMARKS
LITTLE ROCK    CLOUDY    43  38  82 N3        30.18F FOG
N LITTLE ROCK  CLOUDY    41  40  98 NE3       30.18F
JACKSONVILLE   CLOUDY    41  39  92 NE3       30.17F
SEARCY         CLOUDY    40  39  97 NE6       30.20F FOG
HOT SPRINGS    CLOUDY    43  39  86 CALM      30.16F
RUSSELLVILLE   CLOUDY    40  36  86 CALM      30.17F
CLINTON        CLOUDY    39  37  93 CALM      30.20F FOG
$$

ARZ036-182100-
EAST ARKANSAS

CITY           SKY/WX    TMP DP  RH WIND       PRES   REMARKS
WEST MEMPHIS   CLOUDY    44  37  76 CALM      30.18F
$$

ARZ050-053-066-070-073-182100-
SOUTHWEST ARKANSAS

CITY           SKY/WX    TMP DP  RH WIND       PRES   REMARKS
ARKADELPHIA    CLOUDY    43  43 100 NE6       30.18S
CAMDEN         CLOUDY    48  41  76 MISG      30.16F
TEXARKANA      CLOUDY    46  43  89 NE6       30.14F
EL DORADO      CLOUDY    50  45  83 NE3       30.14F
DE QUEEN       CLOUDY    46  43  89 NE5       30.14F FOG
$$

ARZ056-057-069-182100-
SOUTHEAST ARKANSAS

CITY           SKY/WX    TMP DP  RH WIND       PRES   REMARKS
PINE BLUFF     CLOUDY    44  39  82 E3        30.17F
STUTTGART      CLOUDY    43  39  87 NE5       30.17F
MONTICELLO     CLOUDY    49  44  83 E5        30.15F

$$





USA.gov is the U.S. government's official web portal to all federal, state and local government web resources and services.